Location: Bismarck
(46.7731°N, 100.8200°W)
Time: 19:50:22
(UTC-05:00)

ISS - Visible Passes

Search period start: 26 July 2017 00:00
Search period end: 05 August 2017 00:00
Orbit: 400 x 408 km, 51.6° (Epoch: 27 July)

Date Brightness Start Highest point End Pass type
(mag) Time Alt. Az. Time Alt. Az. Time Alt. Az.
26 Jul -2.3 01:36:12 10° WNW 01:39:15 35° N 01:39:29 35° NNE visible
26 Jul -3.0 23:06:44 10° W 23:09:54 51° NNW 23:13:07 10° ENE visible
27 Jul -2.1 00:43:49 10° WNW 00:46:49 33° N 00:48:19 21° NE visible
27 Jul -1.1 02:20:24 10° WNW 02:20:55 14° WNW 02:20:55 14° WNW visible
27 Jul -3.6 22:14:18 10° WSW 22:17:32 74° NNW 22:20:49 10° ENE visible
27 Jul -2.1 23:51:19 10° WNW 23:54:20 33° N 23:57:21 10° ENE visible
28 Jul -2.0 01:28:05 10° WNW 01:30:01 29° NW 01:30:01 29° NW visible
28 Jul -2.3 22:58:48 10° W 23:01:52 37° N 23:04:57 10° ENE visible
29 Jul -2.5 00:35:44 10° WNW 00:38:49 37° N 00:39:12 36° NNE visible
29 Jul -2.7 22:06:15 10° W 22:09:25 46° NNW 22:12:35 10° ENE visible
29 Jul -2.2 23:43:19 10° WNW 23:46:20 33° N 23:48:25 16° ENE visible
30 Jul -1.5 01:19:52 10° WNW 01:21:03 20° WNW 01:21:03 20° WNW visible
30 Jul -2.1 22:50:49 10° WNW 22:53:50 33° N 22:56:49 10° ENE visible
31 Jul -2.8 00:27:31 10° WNW 00:30:18 47° NNW 00:30:18 47° NNW visible
31 Jul -2.3 21:58:16 10° WNW 22:01:19 36° N 22:04:22 10° ENE visible
31 Jul -2.6 23:35:09 10° WNW 23:38:14 39° NNE 23:39:34 26° ENE visible
01 Aug -1.1 01:11:37 10° WNW 01:12:11 14° WNW 01:12:11 14° WNW visible
01 Aug -2.3 22:42:42 10° WNW 22:45:44 34° N 22:48:45 10° ENE visible
02 Aug -2.7 00:19:13 10° WNW 00:21:28 41° WNW 00:21:28 41° WNW visible
02 Aug -2.2 21:50:12 10° WNW 21:53:11 33° N 21:56:11 10° ENE visible
02 Aug -3.4 23:26:50 10° WNW 23:30:03 57° NNE 23:30:46 44° ENE visible
03 Aug -2.8 22:34:25 10° WNW 22:37:33 42° NNE 22:40:05 14° E visible
04 Aug -2.2 00:10:55 10° WNW 00:12:43 28° W 00:12:43 28° W visible
04 Aug -2.5 21:41:58 10° WNW 21:45:01 36° N 21:48:04 10° ENE visible
04 Aug -4.0 23:18:27 10° WNW 23:21:43 83° SSW 23:22:03 69° SE visible
